This is the latest recevied weather packets stored in our database for station/object KY4LEX. If no packets are shown the sender has not sent any weather packets the latest 10 day(s).
| Time | Temp. | Humidity | Pressure | Rain* | Wind** | Luminosity | Snow |
|---|---|---|---|---|---|---|---|
| 1778107153 | 16.11° C | 61% | 1018.3 hPa | 0 mm | - | 32 W/m² | - |
| 1778106848 | 16.11° C | 61% | 1018.3 hPa | 0 mm | - | 40 W/m² | - |
| 1778106546 | 16.11° C | 63% | 1017.8 hPa | 0 mm | - | 56 W/m² | - |
| 1778106242 | 16.11° C | 62% | 1017.5 hPa | 0 mm | - | 109 W/m² | - |
| 1778105940 | 16.11° C | 63% | 1017.6 hPa | 0 mm | - | 73 W/m² | - |
| 1778105636 | 16.11° C | 63% | 1017.5 hPa | 0 mm | - | 89 W/m² | - |
| 1778105334 | 16.11° C | 63% | 1017.6 hPa | 0 mm | - | 53 W/m² | - |
| 1778105029 | 16.11° C | 62% | 1017.4 hPa | 0 mm | - | 69 W/m² | - |
| 1778104727 | 16.11° C | 64% | 1017.8 hPa | 0 mm | - | 58 W/m² | - |
| 1778104422 | 16.11° C | 64% | 1017.7 hPa | 0 mm | - | 71 W/m² | - |
| 1778104118 | 16.11° C | 63% | 1017.6 hPa | 0 mm | - | 77 W/m² | - |
| 1778103815 | 16.11° C | 65% | 1018.1 hPa | 0 mm | - | 72 W/m² | - |
| 1778103514 | 16.11° C | 64% | 1018.4 hPa | 0 mm | - | 68 W/m² | - |
| 1778103211 | 16.11° C | 64% | 1018.3 hPa | 0 mm | - | 67 W/m² | - |
| 1778102908 | 16.11° C | 65% | 1018.3 hPa | 0 mm | - | 73 W/m² | - |
| 1778102603 | 16.11° C | 63% | 1018.3 hPa | 0 mm | - | 89 W/m² | - |
| 1778102298 | 16.67° C | 63% | 1017.7 hPa | 0 mm | - | 103 W/m² | - |
| 1778101995 | 16.11° C | 63% | 1018.2 hPa | 0 mm | - | 128 W/m² | - |
| 1778101693 | 16.11° C | 64% | 1017.7 hPa | 0 mm | - | 142 W/m² | - |
| 1778101389 | 16.11° C | 63% | 1017.8 hPa | 0 mm | - | 131 W/m² | - |
| 1778101086 | 16.67° C | 62% | 1017.7 hPa | 0 mm | - | 140 W/m² | - |
| 1778100782 | 17.22° C | 63% | 1017.6 hPa | 0 mm | - | 130 W/m² | - |
| 1778100478 | 17.22° C | 64% | 1017.8 hPa | 0 mm | - | 116 W/m² | - |
| 1778100177 | 16.67° C | 62% | 1017.7 hPa | 0 mm | - | 129 W/m² | - |
| 1778099874 | 16.67° C | 63% | 1017.4 hPa | 0 mm | - | 153 W/m² | - |
* Rain latest hour (hover to see other rain measurements)
** Current wind speed in m/s (hover to see current wind gust speed)